COSMOS 2251 DEB, 34477

Orbit data source: Space-Track

COSMOS 2251 DEB, 34477 is space debris in LEO originally from a launch on Wed, 16 Jun 1993 UTC launched from the Plesetsk Missile And Space Complex (PKMTR). The debris from Iridium 33, an American commercial communications satellite, has been tracked extensively since its accidental collision with the defunct Russian satellite Cosmos 2251 in 2009. This event, occurring at high speed in low Earth orbit (LEO), generated thousands of pieces of space debris, significantly increasing the risk of further collisions. The Iridium 33 debris cloud has impacted space traffic management and orbital debris mitigation strategies, making it a subject of ongoing study in space situational awareness.

Loading next visibility...
Identifier
34477, 1993-036TW
Orbit
LEO
Country
Flag of CISCIS
Related business
Manufacturer
Unknown
Mission
Spacecraft
Bus & Motor
Unknown
Mass
Unknown
Launch date (UTC)
1993-06-16 (33 years ago)
Launch vehicle
Unknown
Launch site
Plesetsk Missile And Space Complex (PKMTR)
Object type
Payload
Rocket body
Debris
Shape & HBR
Unknown shape, 0.1 m
Radar Cross Section
Medium (>0.1 m² and <1 m²)

Expand to show TLE details & history
Last TLE update: 14 hours ago

TLE from 14 hours ago
0 COSMOS 2251 DEB
1 34477U 93036TW  26207.53698184  .00003529  00000-0  74427-3 0  9993
2 34477  73.9784 358.7280 0073855 131.3806 340.2895 14.58097286919154
Epoch: 2026-07-26T12:53Z
TLE epoch observation values (Epoch: 2026-07-26T12:53:15.230Z)
Latitude
63.61152°
Longitude
6.0375°
Altitude
660.741 km
Speed
7.559 km/s
True Right ascension
09h 34m 20s
True Declination
63° 28' 21"
Sunlit
Object was in daylight at epoch
Visualization orbit readout
Latitude
Unknown
Longitude
Unknown
Altitude
Unknown
Speed
Unknown
Apparent Right ascension
Unknown
Apparent Declination
Unknown
Sunlit
N/A
Visualization observer readout
Local Sidereal Time
16:33:36
Azimuth
Unknown
Elevation
Unknown
Doppler factor
Unknown
Orbital elements
Apogee altitude
749.182 km
Perigee altitude
644.676 km
Semi-major axis
7,075.066 km
Eccentricity
0.00739
Inclination
73.9784°
RAAN
358.728°
Arg. of periapsis
131.3806°
True anomaly
340.00156°
Mean anomaly
340.2895°
Eccentric anomaly
340.14578°
Mean motion
3.6471 °/min
Orbital period
98.71 mins
BSTAR
0.00074427

Documentation

Showing up to 5 results
|